{"data":{"norad_id":63458,"epoch":"2026-05-25T03:26:11.106240Z","epoch_age_seconds":72728,"freshness":"FRESH","line1":"1 63458U 25069AB  26145.14318410  .02035545  00000+0  38645-1 0  9998","line2":"2 63458  53.1582 144.9549 0010781 285.2495  74.7319 15.44321514 65147","mean_motion":15.44321514,"eccentricity":0.0010781,"inclination_deg":53.1582,"raan_deg":144.9549,"arg_perigee_deg":285.2495,"mean_anomaly_deg":74.7319,"bstar":0.038645,"rev_number":6514,"period_min":93.244831917818,"perigee_km":426.02891054281,"apogee_km":440.71588710855,"semimajor_km":6811.5093988257,"source":"CELESTRAK","updated_at":"2026-05-25T13:38:20.003584Z"}}